sat.trackr.live / text

‹ back to catalog

STARLINK-31369

NORAD 58975 · 2024-031L

PAYLOAD ACTIVE UNKNOWN

§ Identity

Operator
Country
US
Launch date
2024-02-15
Launch site
AFWTR
Launch vehicle
Mass (kg)
RCS (m²)

Purposes: comms

External: N2YO · Heavens-Above · Gunter

§ Orbital elements

Epoch: 2026-09-20T22:52:10.199712Z

Period
93.85 min
Inclination
53.1599°
Eccentricity
0.0000912
Mean motion
15.34390447 rev/d
Perigee alt
462.1 km
Apogee alt
463.4 km
Semi-major
6,840.9 km
B*
-6.1677e-5
RAAN
107.2494°
Arg perigee
84.1791°
Mean anomaly
275.9315°
Rev number
14,644

§ Raw data

STARLINK-313691 58975U 24031L   26263.95289583 -.00002459  00000+0 -61677-4 0  99942 58975  53.1599 107.2494 0000912  84.1791 275.9315 15.34390447146448

JSON: /api/v1/satellites/58975 · /tle

For live sub-satellite position, see the globe view (requires WebGL).

§ Visibility from observer

Set your observer location to see the next 7 days of passes ≥ 10°. The values pass through the URL so the page stays shareable.

No JS? Fill the form by hand. The geolocation button needs JavaScript.